Location: Unspecified
(0.0000°N, 0.0000°E)
Time: 12:03:05
(UTC+00:00)

Vanguard 2 - Pass Details

Date: 21 December 2018
Orbit: 553 x 2938 km, 32.9° (Epoch: 15 July)

Event Time Altitude Azimuth Distance (km) Brightness Sun altitude
Rises 23:33:53 0° 328° (NNW) 3,836 - -65.8°
Reaches altitude 10° 23:36:31 10° 339° (NNW) 3,159 - -66.0°
Maximum altitude 23:43:44 32° 41° (NE) 2,559 - -66.3°
Drops below altitude 10° 23:54:40 10° 98° (E) 4,874 - -66.5°
Exits shadow 23:56:29 - 101° (ESE) 5,347 11.8 -66.6°
Sets 23:59:53 0° 106° (ESE) 6,237 12.3 -66.6°
